AFR282 LFPG-RJTT

Flight info

Callsign AFR282
Flight time N/A
Altitude 29000
Route LANVI DCT BEGAR DCT TRA DCT GAMSA DCT BIRGI DCT INGID DCT SETAL DCT INSAX DCT GOTAR DCT MOPUG DCT ASNEL DCT UDROS/N0491F310 UN743 GAKSU UT310 SIN UN644 ROLIN DCT FOQUS DCT DF DCT TBS N61 DEDON L850 ADEKI DCT RASAM L88 METKA B476 TIMGA A480 OTBOR/K0922F310 N147 PIDWO/K0911F330 N147 ELAHA Z621 ARBOL M610 RULAD/K0902S1010 A343 POSOT B215 FKG W188 LIKMI W270 BUVEM/K0898S1070 W270 DKO W69 HUR B339 LADIX W34 VAPGU W100 ORAVA W201 UNSEK A326 DONVO G597 AGAVO/N0492F350 Y644 EGOBA G597 LANAT Y71 XAC
Aircraft B77W/H-SDE1E2E3FGHIJ2J3J4J5M1RWXY/LB1D1

Departure

Time N/A
Airport Charles de Gaulle International Airport (LFPG)

Arrival

Time 2026-05-06 11:36
Airport Tokyo Haneda International Airport (RJTT)
Time Latitude Longitude Altitude Speed Heading
2026-05-06 09:37 37.21829 123.91520 34937 ft 538 kts 131°
2026-05-06 09:37 37.19652 123.95314 34925 ft 540 kts 124°
2026-05-06 09:37 37.18027 123.99584 34948 ft 544 kts 110°
2026-05-06 09:38 37.17066 124.04182 34957 ft 546 kts 99°
2026-05-06 09:38 37.16786 124.08937 34942 ft 546 kts 86°
2026-05-06 09:38 37.17063 124.13693 34991 ft 545 kts 84°
2026-05-06 09:39 37.17585 124.23215 34947 ft 547 kts 86°
2026-05-06 09:39 37.17824 124.32762 34955 ft 548 kts 88°
2026-05-06 09:40 37.18013 124.42321 34950 ft 548 kts 87°
2026-05-06 09:40 37.18341 124.56583 34961 ft 548 kts 87°
2026-05-06 09:41 37.18550 124.66136 34967 ft 547 kts 87°
2026-05-06 09:41 37.18749 124.75689 34966 ft 546 kts 87°
2026-05-06 09:42 37.18941 124.85218 34975 ft 545 kts 87°
2026-05-06 09:42 37.19133 124.94668 34972 ft 544 kts 87°
2026-05-06 09:43 37.19322 125.04155 34985 ft 543 kts 87°
2026-05-06 09:43 37.19503 125.13632 34985 ft 544 kts 87°
2026-05-06 09:44 37.19674 125.23108 34981 ft 544 kts 87°
2026-05-06 09:44 37.19838 125.32603 34987 ft 544 kts 86°
2026-05-06 09:45 37.19996 125.42096 34986 ft 544 kts 87°
2026-05-06 09:45 37.20144 125.51580 34987 ft 544 kts 86°
2026-05-06 09:46 37.20270 125.61051 35008 ft 543 kts 87°
2026-05-06 09:46 37.20387 125.70483 35007 ft 544 kts 87°
2026-05-06 09:47 37.20500 125.79974 34999 ft 544 kts 86°
2026-05-06 09:47 37.20607 125.89477 35008 ft 543 kts 86°
2026-05-06 09:48 37.20707 125.98950 35012 ft 543 kts 86°
2026-05-06 09:48 37.20800 126.08420 35022 ft 542 kts 86°
2026-05-06 09:49 37.20885 126.17876 35020 ft 542 kts 87°
2026-05-06 09:49 37.20963 126.27336 35021 ft 542 kts 86°
2026-05-06 09:50 37.21033 126.36784 35017 ft 541 kts 86°
2026-05-06 09:50 37.21096 126.46168 35016 ft 541 kts 86°
2026-05-06 09:51 37.21154 126.55591 35009 ft 540 kts 86°
2026-05-06 09:51 37.21211 126.65011 35004 ft 539 kts 86°
2026-05-06 09:52 37.21260 126.74422 35024 ft 540 kts 86°
2026-05-06 09:52 37.21301 126.83834 35014 ft 540 kts 86°
2026-05-06 09:53 37.21456 126.93233 35010 ft 535 kts 79°
2026-05-06 09:53 37.22256 126.97741 35019 ft 525 kts 65°
2026-05-06 09:53 37.23697 127.01900 35014 ft 515 kts 55°
2026-05-06 09:54 37.25639 127.05622 35015 ft 505 kts 43°
2026-05-06 09:54 37.27986 127.08866 35040 ft 504 kts 40°
2026-05-06 09:54 37.32761 127.15342 35035 ft 511 kts 41°
2026-05-06 09:55 37.37530 127.22030 35035 ft 516 kts 41°
2026-05-06 09:55 37.42219 127.28699 35028 ft 507 kts 41°
2026-05-06 09:56 37.46728 127.35525 35004 ft 514 kts 51°
2026-05-06 09:56 37.49769 127.43801 35009 ft 528 kts 69°
2026-05-06 09:57 37.51230 127.52896 34984 ft 534 kts 75°
2026-05-06 09:57 37.52594 127.62106 34985 ft 534 kts 74°
2026-05-06 09:58 37.54076 127.71269 34976 ft 534 kts 73°
2026-05-06 09:58 37.55289 127.78891 34964 ft 534 kts 74°
2026-05-06 09:59 37.56732 127.88066 34977 ft 534 kts 74°
2026-05-06 09:59 37.58172 127.97260 34945 ft 533 kts 74°
2026-05-06 10:00 37.59602 128.06426 34954 ft 532 kts 74°
2026-05-06 10:00 37.61024 128.15576 34954 ft 531 kts 74°
2026-05-06 10:01 37.62433 128.24669 34960 ft 531 kts 74°
2026-05-06 10:01 37.63844 128.33810 34967 ft 530 kts 74°
2026-05-06 10:02 37.65247 128.42952 34967 ft 530 kts 74°
2026-05-06 10:02 37.66645 128.52105 34957 ft 530 kts 74°
2026-05-06 10:03 37.68028 128.61243 34950 ft 531 kts 74°
2026-05-06 10:03 37.69204 128.70404 34930 ft 534 kts 84°
2026-05-06 10:04 37.68957 128.75121 34943 ft 541 kts 98°
2026-05-06 10:04 37.67977 128.79706 34957 ft 545 kts 110°
2026-05-06 10:04 37.66278 128.83991 34927 ft 546 kts 122°
2026-05-06 10:04 37.64244 128.88049 34934 ft 546 kts 122°
2026-05-06 10:05 37.60198 128.96103 34941 ft 547 kts 122°
2026-05-06 10:05 37.56209 129.04292 34945 ft 548 kts 121°
2026-05-06 10:06 37.52266 129.12505 34939 ft 548 kts 121°
2026-05-06 10:06 37.48315 129.20703 34940 ft 547 kts 121°
2026-05-06 10:07 37.44356 129.28877 34938 ft 546 kts 121°
2026-05-06 10:07 37.40425 129.36981 34931 ft 545 kts 120°
2026-05-06 10:08 37.36477 129.45121 34946 ft 544 kts 120°
2026-05-06 10:08 37.32537 129.53233 34954 ft 543 kts 120°
2026-05-06 10:09 37.28592 129.61323 34953 ft 543 kts 120°
2026-05-06 10:09 37.24644 129.69405 34964 ft 542 kts 120°
2026-05-06 10:10 37.20699 129.77466 34967 ft 541 kts 120°
2026-05-06 10:10 37.16755 129.85497 34974 ft 540 kts 120°
2026-05-06 10:11 37.12803 129.93502 34974 ft 539 kts 120°
2026-05-06 10:11 37.08853 130.01471 34973 ft 538 kts 120°
2026-05-06 10:12 37.04899 130.09428 34980 ft 537 kts 120°
2026-05-06 10:12 37.00962 130.17349 34972 ft 536 kts 120°
2026-05-06 10:13 36.97038 130.25220 34982 ft 535 kts 120°
2026-05-06 10:13 36.93101 130.33092 35003 ft 533 kts 120°
2026-05-06 10:14 36.89166 130.40951 34992 ft 532 kts 120°
2026-05-06 10:14 36.85238 130.48775 35002 ft 532 kts 120°
2026-05-06 10:15 36.81326 130.56548 35009 ft 531 kts 120°
2026-05-06 10:15 36.77372 130.64391 35003 ft 531 kts 120°
2026-05-06 10:16 36.73450 130.72145 35011 ft 530 kts 120°
2026-05-06 10:16 36.69505 130.79920 35018 ft 530 kts 120°
2026-05-06 10:17 36.65555 130.87691 35016 ft 530 kts 120°
2026-05-06 10:17 36.61603 130.95455 35034 ft 531 kts 121°
2026-05-06 10:18 36.57656 131.03187 35027 ft 531 kts 121°
2026-05-06 10:18 36.53689 131.10941 35024 ft 531 kts 121°
2026-05-06 10:19 36.49719 131.18683 35032 ft 531 kts 121°
2026-05-06 10:19 36.45758 131.26393 35034 ft 530 kts 121°
2026-05-06 10:20 36.41779 131.34123 35036 ft 529 kts 121°
2026-05-06 10:20 36.37939 131.41855 35040 ft 527 kts 116°
2026-05-06 10:21 36.35068 131.50167 35043 ft 523 kts 106°
2026-05-06 10:21 36.32707 131.58650 35045 ft 522 kts 106°
2026-05-06 10:22 36.30314 131.67149 35045 ft 522 kts 107°
2026-05-06 10:22 36.27880 131.75637 35049 ft 521 kts 107°
2026-05-06 10:23 36.25432 131.84098 35052 ft 520 kts 107°
2026-05-06 10:23 36.22987 131.92525 35047 ft 519 kts 107°
2026-05-06 10:24 36.20543 132.00926 35048 ft 519 kts 108°
2026-05-06 10:24 36.18092 132.09333 35056 ft 518 kts 108°
2026-05-06 10:25 36.15641 132.17715 35061 ft 517 kts 108°
2026-05-06 10:25 36.13200 132.26041 35063 ft 517 kts 108°
2026-05-06 10:26 36.10740 132.34400 35071 ft 517 kts 108°
2026-05-06 10:26 36.08277 132.42749 35069 ft 517 kts 108°
2026-05-06 10:27 36.05798 132.51125 35068 ft 517 kts 108°
2026-05-06 10:27 36.03321 132.59467 35068 ft 517 kts 108°
2026-05-06 10:28 36.00854 132.67764 35074 ft 517 kts 109°
2026-05-06 10:28 35.98365 132.76093 35076 ft 517 kts 109°
2026-05-06 10:29 35.95874 132.84406 35076 ft 516 kts 109°
2026-05-06 10:29 35.93376 132.92723 35079 ft 516 kts 109°
2026-05-06 10:30 35.90884 133.00995 35081 ft 516 kts 109°
2026-05-06 10:30 35.88375 133.09301 35086 ft 515 kts 109°
2026-05-06 10:31 35.85870 133.17569 35081 ft 516 kts 109°
2026-05-06 10:31 35.83351 133.25861 35087 ft 516 kts 110°
2026-05-06 10:32 35.80831 133.34131 35082 ft 516 kts 110°
2026-05-06 10:32 35.78300 133.42411 35081 ft 516 kts 110°
2026-05-06 10:33 35.75772 133.50673 35088 ft 516 kts 111°
2026-05-06 10:33 35.73237 133.58910 35086 ft 517 kts 111°
2026-05-06 10:34 35.70675 133.67204 35081 ft 518 kts 111°
2026-05-06 10:34 35.68116 133.75492 35085 ft 519 kts 111°
2026-05-06 10:35 35.65561 133.83740 35082 ft 519 kts 112°
2026-05-06 10:35 35.62959 133.92111 35099 ft 522 kts 113°
2026-05-06 10:36 35.60369 134.00411 35090 ft 524 kts 113°
2026-05-06 10:36 35.57751 134.08798 35037 ft 527 kts 115°
2026-05-06 10:37 35.55102 134.17232 35059 ft 530 kts 115°
2026-05-06 10:37 35.52440 134.25689 35024 ft 533 kts 118°
2026-05-06 10:38 35.49750 134.34214 35060 ft 537 kts 118°
2026-05-06 10:38 35.47041 134.42775 35062 ft 540 kts 119°
2026-05-06 10:39 35.44329 134.51332 35074 ft 542 kts 120°
2026-05-06 10:39 35.41580 134.59969 35079 ft 545 kts 120°
2026-05-06 10:40 35.38815 134.68646 35072 ft 547 kts 121°
2026-05-06 10:40 35.36025 134.77352 35085 ft 549 kts 121°
2026-05-06 10:41 35.33229 134.86067 35084 ft 548 kts 122°
2026-05-06 10:41 35.30448 134.94714 35102 ft 548 kts 122°
2026-05-06 10:42 35.27653 135.03387 35082 ft 546 kts 122°
2026-05-06 10:42 35.25329 135.10554 35112 ft 545 kts 122°
2026-05-06 10:43 35.22522 135.19190 35110 ft 545 kts 122°
2026-05-06 10:44 35.18317 135.32106 35109 ft 544 kts 122°
2026-05-06 10:44 35.15511 135.40693 35111 ft 544 kts 122°
2026-05-06 10:45 35.12700 135.49265 35099 ft 543 kts 122°
2026-05-06 10:45 35.09903 135.57774 35113 ft 543 kts 122°
2026-05-06 10:46 35.07082 135.66334 35114 ft 543 kts 122°
2026-05-06 10:46 35.04257 135.74884 35107 ft 543 kts 122°
2026-05-06 10:47 35.01593 135.83534 35117 ft 551 kts 116°
2026-05-06 10:47 34.99920 135.92779 35133 ft 560 kts 109°
2026-05-06 10:48 34.98496 136.02122 35115 ft 559 kts 109°
2026-05-06 10:48 34.97026 136.11396 35123 ft 556 kts 110°
2026-05-06 10:49 34.95507 136.20634 35126 ft 554 kts 110°
2026-05-06 10:49 34.93980 136.29830 35111 ft 553 kts 110°
2026-05-06 10:50 34.92467 136.38948 35119 ft 551 kts 110°
2026-05-06 10:50 34.90957 136.48012 35127 ft 550 kts 110°
2026-05-06 10:51 34.89426 136.57161 35136 ft 550 kts 110°
2026-05-06 10:51 34.87945 136.65996 35128 ft 549 kts 110°
2026-05-06 10:52 34.86421 136.75110 35131 ft 548 kts 110°
2026-05-06 10:52 34.84893 136.84196 35132 ft 548 kts 110°
2026-05-06 10:53 34.83357 136.93289 35117 ft 548 kts 109°
2026-05-06 10:53 34.82173 137.02430 35132 ft 552 kts 105°
2026-05-06 10:54 34.81189 137.11710 35135 ft 552 kts 105°
2026-05-06 10:54 34.80191 137.20953 35131 ft 552 kts 105°
2026-05-06 10:55 34.79151 137.30218 35131 ft 550 kts 105°
2026-05-06 10:55 34.78103 137.39414 35143 ft 549 kts 105°
2026-05-06 10:56 34.77057 137.48546 35142 ft 549 kts 105°
2026-05-06 10:56 34.75997 137.57756 35143 ft 549 kts 105°
2026-05-06 10:57 34.74930 137.66978 35148 ft 550 kts 105°
2026-05-06 10:57 34.73961 137.76258 35148 ft 554 kts 103°
2026-05-06 10:58 34.73104 137.85568 35146 ft 555 kts 103°
2026-05-06 10:58 34.72209 137.94904 35135 ft 556 kts 103°
2026-05-06 10:59 34.71378 138.04147 35132 ft 560 kts 99°
2026-05-06 10:59 34.71342 138.13550 35140 ft 564 kts 94°
2026-05-06 10:59 34.71409 138.18290 34963 ft 558 kts 94°
2026-05-06 11:00 34.71473 138.22979 34551 ft 548 kts 95°
2026-05-06 11:00 34.71523 138.27556 33691 ft 534 kts 95°
2026-05-06 11:00 34.71553 138.32038 32445 ft 528 kts 95°
2026-05-06 11:00 34.71566 138.36492 31164 ft 525 kts 95°
2026-05-06 11:01 34.71569 138.40982 30157 ft 531 kts 95°
2026-05-06 11:01 34.71576 138.45401 29341 ft 513 kts 95°
2026-05-06 11:01 34.71587 138.49603 28373 ft 500 kts 95°
2026-05-06 11:01 34.71595 138.53797 27290 ft 492 kts 95°
2026-05-06 11:02 34.71599 138.57945 26274 ft 494 kts 95°
2026-05-06 11:02 34.71598 138.62141 25728 ft 494 kts 95°
2026-05-06 11:02 34.71601 138.66278 25420 ft 484 kts 96°
2026-05-06 11:02 34.71607 138.70308 24943 ft 470 kts 96°
2026-05-06 11:03 34.71608 138.74252 24267 ft 468 kts 96°
2026-05-06 11:03 34.71603 138.78185 23761 ft 469 kts 96°
2026-05-06 11:03 34.71597 138.82138 23272 ft 467 kts 96°
2026-05-06 11:03 34.71579 138.86096 22720 ft 471 kts 95°
2026-05-06 11:04 34.71553 138.90109 22215 ft 481 kts 95°
2026-05-06 11:04 34.71529 138.94234 21669 ft 490 kts 95°
2026-05-06 11:04 34.71510 138.98315 21116 ft 489 kts 94°
2026-05-06 11:04 34.71489 139.02427 20568 ft 485 kts 94°
2026-05-06 11:05 34.71464 139.06512 20026 ft 481 kts 94°
2026-05-06 11:05 34.71437 139.10576 19478 ft 478 kts 93°
2026-05-06 11:05 34.71410 139.14609 18931 ft 475 kts 93°
2026-05-06 11:05 34.71382 139.18617 18370 ft 472 kts 93°
2026-05-06 11:06 34.71353 139.22599 17759 ft 469 kts 92°
2026-05-06 11:06 34.71325 139.26520 17183 ft 455 kts 92°
2026-05-06 11:06 34.71297 139.30242 16649 ft 437 kts 92°
2026-05-06 11:06 34.71268 139.33885 16155 ft 428 kts 93°
2026-05-06 11:07 34.71236 139.37482 15687 ft 425 kts 93°
2026-05-06 11:07 34.71379 139.41044 15175 ft 421 kts 80°
2026-05-06 11:07 34.72402 139.44352 14693 ft 415 kts 58°
2026-05-06 11:07 34.73870 139.47302 14463 ft 402 kts 58°
2026-05-06 11:08 34.75240 139.50187 14263 ft 384 kts 59°
2026-05-06 11:08 34.76503 139.52931 14093 ft 363 kts 60°
2026-05-06 11:08 34.77692 139.55538 13931 ft 343 kts 59°
2026-05-06 11:08 34.78824 139.58013 13767 ft 325 kts 59°
2026-05-06 11:09 34.79896 139.60358 13562 ft 311 kts 59°
2026-05-06 11:09 34.80935 139.62627 13394 ft 302 kts 59°
2026-05-06 11:09 34.81950 139.64847 13261 ft 301 kts 59°
2026-05-06 11:09 34.82974 139.67084 13162 ft 309 kts 59°
2026-05-06 11:10 34.84190 139.69156 13069 ft 309 kts 38°
2026-05-06 11:10 34.85997 139.70462 13027 ft 301 kts 14°
2026-05-06 11:10 34.87993 139.71249 13042 ft 303 kts 12°
2026-05-06 11:10 34.90000 139.72038 13019 ft 303 kts 13°
2026-05-06 11:11 34.92002 139.72838 13017 ft 303 kts 13°
2026-05-06 11:11 34.94007 139.73648 13007 ft 303 kts 13°
2026-05-06 11:11 34.96015 139.74463 13003 ft 303 kts 13°
2026-05-06 11:11 34.98002 139.75295 12992 ft 301 kts 18°
2026-05-06 11:12 34.99742 139.76707 13008 ft 303 kts 41°
2026-05-06 11:12 35.01236 139.78566 13026 ft 311 kts 43°
2026-05-06 11:12 35.02776 139.80459 13023 ft 315 kts 42°
2026-05-06 11:12 35.04318 139.82320 13014 ft 314 kts 41°
2026-05-06 11:13 35.05864 139.84172 13009 ft 314 kts 41°
2026-05-06 11:13 35.07391 139.85995 13002 ft 313 kts 41°
2026-05-06 11:13 35.08723 139.88033 12982 ft 310 kts 65°
2026-05-06 11:13 35.09226 139.90560 13009 ft 308 kts 94°
2026-05-06 11:14 35.08859 139.93121 13024 ft 307 kts 115°
2026-05-06 11:14 35.07855 139.95353 13020 ft 302 kts 129°
2026-05-06 11:14 35.06672 139.97496 13016 ft 304 kts 129°
2026-05-06 11:14 35.05496 139.99651 13011 ft 305 kts 128°
2026-05-06 11:15 35.04327 140.01816 13012 ft 305 kts 128°
2026-05-06 11:15 35.03169 140.03971 13015 ft 305 kts 128°
2026-05-06 11:15 35.02204 140.06274 12994 ft 306 kts 108°
2026-05-06 11:15 35.01774 140.08825 13023 ft 307 kts 104°
2026-05-06 11:16 35.01359 140.11391 13015 ft 308 kts 105°
2026-05-06 11:16 35.00917 140.13912 13018 ft 308 kts 106°
2026-05-06 11:16 35.00454 140.16480 13019 ft 309 kts 106°
2026-05-06 11:16 35.00004 140.19044 13013 ft 309 kts 101°
2026-05-06 11:17 34.99970 140.21663 13018 ft 310 kts 86°
2026-05-06 11:17 35.00235 140.24283 13018 ft 312 kts 84°
2026-05-06 11:17 35.00515 140.26923 13020 ft 314 kts 85°
2026-05-06 11:17 35.00760 140.29572 13024 ft 315 kts 85°
2026-05-06 11:18 35.00987 140.32238 13017 ft 316 kts 85°
2026-05-06 11:18 35.01458 140.34837 12996 ft 312 kts 64°
2026-05-06 11:18 35.02431 140.37111 13032 ft 312 kts 61°
2026-05-06 11:18 35.03394 140.39364 13031 ft 317 kts 62°
2026-05-06 11:19 35.04309 140.41592 13109 ft 316 kts 63°
2026-05-06 11:19 35.05322 140.43936 13020 ft 316 kts 53°
2026-05-06 11:19 35.06892 140.45742 13023 ft 308 kts 25°
2026-05-06 11:19 35.08870 140.46549 13016 ft 297 kts
2026-05-06 11:20 35.10906 140.46389 12668 ft 291 kts 339°
2026-05-06 11:20 35.12723 140.45470 12372 ft 276 kts 321°
2026-05-06 11:20 35.14248 140.44117 12108 ft 267 kts 316°
2026-05-06 11:20 35.15699 140.42728 11857 ft 262 kts 315°
2026-05-06 11:21 35.17120 140.41355 11587 ft 258 kts 315°
2026-05-06 11:21 35.18523 140.40002 11347 ft 255 kts 315°
2026-05-06 11:21 35.19908 140.38672 11115 ft 258 kts 315°
2026-05-06 11:21 35.21327 140.37315 10873 ft 261 kts 315°
2026-05-06 11:22 35.22766 140.35943 10618 ft 262 kts 316°
2026-05-06 11:22 35.24210 140.34572 10361 ft 262 kts 316°
2026-05-06 11:22 35.25646 140.33211 10106 ft 261 kts 315°
2026-05-06 11:22 35.27082 140.31851 9830 ft 260 kts 316°
2026-05-06 11:23 35.28509 140.30497 9556 ft 259 kts 316°
2026-05-06 11:23 35.29923 140.29161 9331 ft 256 kts 316°
2026-05-06 11:23 35.31336 140.27821 9063 ft 255 kts 316°
2026-05-06 11:23 35.32732 140.26495 8809 ft 254 kts 316°
2026-05-06 11:24 35.34108 140.25191 8575 ft 252 kts 316°
2026-05-06 11:24 35.35494 140.23875 8328 ft 251 kts 316°
2026-05-06 11:24 35.36884 140.22580 8082 ft 250 kts 321°
2026-05-06 11:24 35.38552 140.21865 7949 ft 264 kts 348°
2026-05-06 11:25 35.40412 140.21692 7844 ft 272 kts 351°
2026-05-06 11:25 35.42296 140.21518 7709 ft 272 kts 351°
2026-05-06 11:25 35.44169 140.21337 7572 ft 266 kts 351°
2026-05-06 11:25 35.45980 140.21159 7440 ft 255 kts 351°
2026-05-06 11:26 35.47680 140.20988 7323 ft 244 kts 351°
2026-05-06 11:26 35.49283 140.20825 7207 ft 233 kts 351°
2026-05-06 11:26 35.50855 140.20665 7091 ft 220 kts 351°
2026-05-06 11:26 35.52371 140.20509 7066 ft 220 kts 351°
2026-05-06 11:27 35.53883 140.20262 6843 ft 223 kts 342°
2026-05-06 11:27 35.55365 140.19759 6586 ft 219 kts 339°
2026-05-06 11:27 35.56816 140.19234 6297 ft 215 kts 339°
2026-05-06 11:27 35.58195 140.18616 6005 ft 205 kts 321°
2026-05-06 11:28 35.59117 140.17407 5891 ft 197 kts 297°
2026-05-06 11:28 35.59834 140.15935 5740 ft 204 kts 295°
2026-05-06 11:28 35.60334 140.14343 5554 ft 196 kts 273°
2026-05-06 11:28 35.60438 140.12722 5420 ft 185 kts 269°
2026-05-06 11:29 35.60474 140.11706 5301 ft 176 kts 267°
2026-05-06 11:29 35.60494 140.10247 5192 ft 168 kts 265°
2026-05-06 11:29 35.60494 140.08355 5084 ft 167 kts 265°
2026-05-06 11:29 35.60491 140.07387 5045 ft 168 kts 265°
2026-05-06 11:30 35.60484 140.05488 5002 ft 169 kts 265°
2026-05-06 11:30 35.60479 140.04516 4861 ft 173 kts 265°
2026-05-06 11:30 35.60473 140.03042 4578 ft 171 kts 265°
2026-05-06 11:30 35.60468 140.01600 4300 ft 166 kts 265°
2026-05-06 11:31 35.60461 140.00193 4041 ft 165 kts 265°
2026-05-06 11:31 35.60455 139.98779 3793 ft 166 kts 265°
2026-05-06 11:31 35.60448 139.97358 3537 ft 167 kts 265°
2026-05-06 11:31 35.60443 139.95933 3292 ft 167 kts 265°
2026-05-06 11:32 35.60437 139.94522 3061 ft 163 kts 265°
2026-05-06 11:32 35.60431 139.93131 2841 ft 160 kts 265°
2026-05-06 11:32 35.60426 139.91802 2559 ft 151 kts 264°
2026-05-06 11:32 35.60420 139.90522 2330 ft 150 kts 264°
2026-05-06 11:33 35.60414 139.89231 2084 ft 151 kts 264°
2026-05-06 11:33 35.60409 139.87952 1869 ft 151 kts 264°
2026-05-06 11:33 35.60402 139.86663 1616 ft 152 kts 265°
2026-05-06 11:33 35.60398 139.85365 1384 ft 152 kts 265°
2026-05-06 11:34 35.60392 139.84069 1148 ft 152 kts 265°
2026-05-06 11:34 35.60383 139.82783 1057 ft 150 kts 264°
2026-05-06 11:34 35.60181 139.81527 923 ft 147 kts 243°
2026-05-06 11:34 35.59707 139.80462 725 ft 140 kts 229°
2026-05-06 11:35 35.59021 139.79654 510 ft 135 kts 208°
2026-05-06 11:35 35.58247 139.79083 404 ft 134 kts 215°
2026-05-06 11:35 35.57455 139.78349 352 ft 145 kts 213°
2026-05-06 11:35 35.56661 139.77632 65 ft 143 kts 213°
2026-05-06 11:36 35.55966 139.77047 30 ft 117 kts 217°
2026-05-06 11:36 35.55453 139.76604 30 ft 64 kts 215°
2026-05-06 11:36 35.55209 139.76398 30 ft 29 kts 212°
2026-05-06 11:36 35.55075 139.76328 30 ft 18 kts 195°
2026-05-06 11:37 35.54954 139.76310 28 ft 13 kts 162°
2026-05-06 11:37 35.54907 139.76363 28 ft 10 kts 108°
2026-05-06 11:37 35.54942 139.76430 28 ft 10 kts 39°
2026-05-06 11:37 35.54998 139.76477 28 ft 10 kts 34°
2026-05-06 11:38 35.55050 139.76522 28 ft 10 kts 35°
2026-05-06 11:38 35.55095 139.76587 28 ft 10 kts 53°
2026-05-06 11:38 35.55130 139.76663 28 ft 10 kts 62°
2026-05-06 11:38 35.55162 139.76731 28 ft 10 kts 60°
2026-05-06 11:39 35.55199 139.76808 28 ft 10 kts 59°
2026-05-06 11:39 35.55235 139.76884 28 ft 10 kts 59°
2026-05-06 11:39 35.55272 139.76961 28 ft 10 kts 62°
2026-05-06 11:39 35.55257 139.77043 28 ft 11 kts 133°
2026-05-06 11:40 35.55196 139.77093 28 ft 11 kts 149°
2026-05-06 11:40 35.55132 139.77139 28 ft 11 kts 149°
2026-05-06 11:40 35.55065 139.77188 28 ft 14 kts 149°
2026-05-06 11:40 35.54975 139.77252 28 ft 15 kts 150°
2026-05-06 11:41 35.54884 139.77316 28 ft 15 kts 150°
2026-05-06 11:41 35.54793 139.77379 28 ft 15 kts 150°
2026-05-06 11:41 35.54713 139.77435 28 ft 10 kts 150°
2026-05-06 11:41 35.54650 139.77428 28 ft 10 kts 233°
2026-05-06 11:42 35.54612 139.77350 28 ft 11 kts 238°
2026-05-06 11:42 35.54574 139.77273 28 ft 11 kts 240°
2026-05-06 11:42 35.54525 139.77213 28 ft 11 kts 192°
2026-05-06 11:42 35.54474 139.77232 28 ft 2 kts 173°
2026-05-06 11:43 35.54459 139.77221 28 ft 4 kts 217°
2026-05-06 11:43 35.54432 139.77174 28 ft 6 kts 240°
2026-05-06 11:43 35.54421 139.77150 28 ft 3 kts 239°
2026-05-06 11:44 35.54414 139.77135 28 ft 0 kts 240°